Location: Gazon
(48.1318°N, 1.2708°W)
Time: 22:39:32
(UTC+00:00)

Cosmos 2098 Rocket - Pass Details

Date: 18 September 2020
Orbit: 366 x 1185 km, 82.9° (Epoch: 24 October)

Event Time Altitude Azimuth Distance (km) Brightness Sun altitude
Rises 20:51:10 0° 353° (N) 4,074 7.8 -25.9°
Reaches altitude 10° 20:54:05 10° 358° (N) 3,067 7.0 -26.3°
Maximum altitude 21:01:09 52° 74° (ENE) 1,291 4.3 -27.2°
Enters shadow 21:01:10 52° 74° (ENE) 1,291 4.3 -27.2°
